Stations météo

Publicité
Grenoble/St.Geoirs, France (7486): Température de l'air & dewpoint: 11.06.2019 16:00:00 - 17.06.2019 16:00:00 (CEST)Grenoble/St.Geoirs, France (7486): Température de l'air 5cm: 11.06.2019 16:00:00 - 17.06.2019 16:00:00 (CEST)Grenoble/St.Geoirs, France (7486): Température de l'air -20cm & Température de l'air -100cm: 11.06.2019 16:00:00 - 17.06.2019 16:00:00 (CEST)Grenoble/St.Geoirs, France (7486): Vitesse du vent & gusts: 11.06.2019 16:00:00 - 17.06.2019 16:00:00 (CEST)Grenoble/St.Geoirs, France (7486): Direction du vent: 11.06.2019 16:00:00 - 17.06.2019 16:00:00 (CEST)Grenoble/St.Geoirs, France (7486): reduced air pressure: 11.06.2019 16:00:00 - 17.06.2019 16:00:00 (CEST)Grenoble/St.Geoirs, France (7486): visibility: 11.06.2019 16:00:00 - 17.06.2019 16:00:00 (CEST)Grenoble/St.Geoirs, France (7486): Ensoleillement: 11.06.2019 16:00:00 - 17.06.2019 16:00:00 (CEST)Grenoble/St.Geoirs, France (7486): Quantités de précipitations: 11.06.2019 16:00:00 - 17.06.2019 16:00:00 (CEST)
Date & Time tt [°C] td [°C] tt 5cm [°C] tt -20cm [°C] tt -100cm [°C] ff [km/h] ff [knt] fx [km/h] fx [knt] dd ppp [hPa] vv [km] sd [min] rr [mm]
17.06.2019 16:00:00 25,9 15,3 32,4 18,0 15,4 6 4 23 12 NNW 1014,8 19 60 0,0
17.06.2019 15:00:00 25,2 14,6 32,6 17,8 15,4 7 4 16 9 SW 1015,5 19 60 0,0
17.06.2019 14:00:00 24,0 13,5 32,5 17,6 15,4 7 4 20 11 N 1015,8 35 60 0,0
17.06.2019 13:00:00 22,9 14,2 28,9 17,5 15,4 9 5 21 12 N 1016,2 30 60 0,0
17.06.2019 12:00:00 22,2 13,5 26,9 17,5 15,4 12 6 24 13 NE 1016,7 42 60 0,0
17.06.2019 11:00:00 20,9 12,8 26,1 17,5 15,4 16 9 25 14 NNE 1016,9 16 60 0,0
17.06.2019 10:00:00 18,6 13,2 24,3 17,6 15,4 8 4 17 9 SW 1017,6 15 60 0,0
17.06.2019 09:00:00 15,8 12,4 21,9 17,7 15,4 5 3 11 6 WNW 1018,1 11 60 0,0
17.06.2019 08:00:00 13,5 12,1 13,2 17,8 15,4 3 1 8 4 S 1018,4 20 60 0,0
17.06.2019 07:00:00 11,8 11,0 8,3 17,9 15,4 6 3 13 7 ENE 1018,5 6 44 0,0
17.06.2019 06:00:00 9,6 8,5 7,5 18,1 15,4 10 5 12 7 E 1019,1 5 0 0,0
17.06.2019 05:00:00 10,4 9,3 7,2 18,1 15,4 8 4 10 5 SE 1019,1 4,7 0 0,0
17.06.2019 04:00:00 10,9 9,7 6,9 18,2 15,4 5 3 10 5 SE 1019,1 10 0 0,0
17.06.2019 03:00:00 11,3 9,9 7,8 18,3 15,4 8 4 10 5 ESE 1019,3 12 0 0,0
17.06.2019 02:00:00 11,9 10,1 8,5 18,4 15,4 3 1 6 3 ESE 1019,2 14 0 0,0
17.06.2019 01:00:00 13,4 10,6 9,5 18,5 15,4 3 1 8 4 E 1019,1 21 0 0,0
17.06.2019 00:00:00 15,5 11,3 10,0 18,5 15,4 4 2 11 6 WNW 1018,8 24 0 0,0
16.06.2019 23:00:00 15,6 11,6 10,4 18,5 15,4 5 3 13 7 NW 1019,0 24 0 0,0
16.06.2019 22:00:00 17,0 12,3 14,1 18,4 15,3 10 5 22 12 NNW 1018,5 21 2 0,0
16.06.2019 21:00:00 19,5 12,5 19,2 18,3 15,4 12 7 29 16 NNW 1018,1 11 60 0,0
16.06.2019 20:00:00 20,8 13,2 23,7 18,2 15,3 18 10 34 19 NNW 1017,9 9 60 0,0
16.06.2019 19:00:00 21,6 13,2 25,8 18,0 15,3 22 12 36 19 NNW 1018,0 9 60 0,0
16.06.2019 18:00:00 21,8 13,4 26,7 17,9 15,3 18 10 35 19 NW 1018,3 11 57 0,0
16.06.2019 17:00:00 21,9 13,8 26,1 17,7 15,3 19 11 34 19 NNW 1018,4 12 51 0,0
16.06.2019 16:00:00 21,6 13,2 24,7 17,5 15,3 18 10 35 19 N 1018,9 14 44 0,0
16.06.2019 15:00:00 20,9 12,8 23,8 17,4 15,3 17 9 34 18 NNW 1019,2 16 37 0,0
16.06.2019 14:00:00 20,2 12,7 23,5 17,2 15,3 21 11 35 19 NNW 1019,7 19 39 0,0
16.06.2019 13:00:00 19,1 12,4 21,7 17,2 15,3 21 11 33 18 NNW 1020,4 19 36 0,0
16.06.2019 12:00:00 18,9 11,9 23,0 17,2 15,3 17 9 32 17 NNW 1020,7 21 44 0,0
16.06.2019 11:00:00 17,6 11,4 20,2 17,2 15,3 20 11 35 19 N 1021,1 22 16 0,0
16.06.2019 10:00:00 16,8 11,5 21,4 17,2 15,3 17 9 34 18 N 1021,4 12 54 0,0
16.06.2019 09:00:00 16,2 11,1 19,3 17,3 15,3 12 7 24 13 N 1021,6 13 57 0,0
16.06.2019 08:00:00 14,5 11,8 12,6 17,4 15,3 7 4 20 11 N 1021,8 12 15 0,0
16.06.2019 07:00:00 12,2 11,3 9,8 17,5 15,3 9 5 16 9 N 1022,1 19 7 0,0
16.06.2019 06:00:00 11,6 10,7 9,1 17,6 15,3 6 3 10 5 SE 1022,2 10 0 0,0
16.06.2019 05:00:00 12,3 11,4 11,2 17,7 15,3 3 1 8 4 NNW 1021,9 10 0 0,0
16.06.2019 04:00:00 12,0 11,1 11,5 17,8 15,3 4 2 9 5 SE 1022,0 11 0 0,0
16.06.2019 03:00:00 11,3 10,5 8,4 17,9 15,3 5 3 10 6 N 1022,3 12 0 0,0
16.06.2019 02:00:00 10,4 9,3 9,1 17,9 15,3 8 4 10 5 E 1022,4 11 0 0,0
16.06.2019 01:00:00 11,5 10,6 7,9 18,0 15,3 4 2 8 4 E 1022,2 8 0 0,0
16.06.2019 00:00:00 12,0 10,9 9,0 18,1 15,3 4 2 10 5 S 1022,0 28 0 0,0
15.06.2019 23:00:00 12,4 11,3 7,9 18,1 15,2 5 3 8 4 E 1021,5 18 0 0,0
15.06.2019 22:00:00 13,1 10,6 8,9 18,1 15,2 5 3 10 6 E 1020,6 9 1 0,0
15.06.2019 21:00:00 15,7 11,9 15,9 18,1 15,2 4 2 15 8 E 1019,7 56 60 0,0
15.06.2019 20:00:00 17,4 11,4 18,9 18,1 15,2 8 4 15 8 ENE 1019,1 48 52 0,0
15.06.2019 19:00:00 16,0 12,5 17,0 18,1 15,2 8 4 29 16 NE 1019,5 28 28 0,0
15.06.2019 18:00:00 15,5 12,6 13,4 18,1 15,2 24 13 37 20 E 1019,6 10 23 1,0
15.06.2019 17:00:00 13,9 11,9 13,1 18,0 15,2 14 7 55 30 ESE 1019,7 6 0 2,8
15.06.2019 16:00:00 15,0 13,2 14,4 17,9 15,2 35 19 54 29 WNW 1018,6 18 0 -
15.06.2019 15:00:00 18,2 14,3 16,4 17,8 15,2 32 17 52 28 NW 1014,2 6 7 0,6
15.06.2019 14:00:00 20,8 14,0 26,1 17,6 15,2 13 7 24 13 NNW 1014,8 32 15 0,0
15.06.2019 13:00:00 20,7 13,6 25,5 17,6 15,2 12 7 20 11 NNE 1015,3 32 7 0,0
15.06.2019 12:00:00 19,8 13,9 22,6 17,5 15,2 12 7 26 14 N 1016,4 40 14 0,0
15.06.2019 11:00:00 19,2 14,0 23,4 17,5 15,2 12 6 22 12 NNE 1016,8 19 40 0,0
15.06.2019 10:00:00 18,3 15,4 19,7 17,6 15,2 5 3 10 6 NNW 1016,7 27 13 0,0
15.06.2019 09:00:00 16,2 14,6 15,3 17,6 15,1 3 2 11 6 NNW 1017,1 32 4 0,0
15.06.2019 08:00:00 15,2 14,1 14,5 17,7 15,2 3 1 8 4 WSW 1016,9 6 0 1,0
15.06.2019 07:00:00 15,0 13,7 14,4 17,7 15,1 4 2 15 8 NNE 1016,0 8 0 0,4
15.06.2019 06:00:00 15,2 13,7 14,5 17,7 15,1 7 4 15 8 NE 1015,8 18 0 0,0
15.06.2019 05:00:00 15,6 14,5 14,9 17,8 15,2 4 2 10 5 SW 1015,1 13 0 0,0
15.06.2019 04:00:00 15,5 14,2 15,0 17,9 15,2 6 4 16 9 NNE 1015,1 19 0 0,0
15.06.2019 03:00:00 15,7 14,1 15,0 17,9 15,1 6 4 13 7 NE 1015,2 28 0 0,2
15.06.2019 02:00:00 16,6 13,7 15,6 17,9 15,1 6 3 18 10 NNW 1015,1 34 0 0,0
15.06.2019 01:00:00 17,0 13,3 16,1 18,0 15,1 8 4 17 9 WNW 1014,5 36 0 0,0
15.06.2019 00:00:00 16,8 13,5 14,6 18,0 15,1 8 4 17 9 WSW 1013,3 34 0 0,0
14.06.2019 23:00:00 16,8 12,7 14,0 17,9 15,1 4 2 22 12 W 1012,2 39 0 0,0
14.06.2019 22:00:00 17,3 13,0 15,5 17,9 15,1 7 4 21 11 NNW 1011,5 37 0 0,0
14.06.2019 21:00:00 18,3 14,4 17,8 17,8 15,1 13 7 27 15 WNW 1010,1 25 30 0,0
14.06.2019 20:00:00 20,4 16,0 21,1 17,7 15,1 14 8 28 15 NW 1008,8 22 33 0,0
14.06.2019 19:00:00 21,8 14,2 21,8 17,5 15,1 16 9 27 14 ENE 1007,4 17 3 0,0
14.06.2019 18:00:00 22,4 13,2 24,1 17,4 15,1 11 6 38 20 NNE 1008,4 20 14 0,0
14.06.2019 17:00:00 23,0 14,3 26,2 17,3 15,1 12 6 29 15 N 1009,8 12 39 0,0
14.06.2019 16:00:00 23,0 14,0 27,6 17,2 15,1 17 9 33 18 NNE 1010,4 12 60 0,0
14.06.2019 15:00:00 22,1 14,5 23,9 17,1 15,1 17 9 34 18 E 1011,0 11 32 0,0
14.06.2019 14:00:00 20,9 14,3 22,1 17,1 15,1 19 10 34 18 ENE 1012,3 12 43 0,0
14.06.2019 13:00:00 17,8 15,2 15,4 17,2 15,1 9 5 21 11 NE 1014,0 15 15 0,4
14.06.2019 12:00:00 16,8 12,7 14,9 17,2 15,1 7 4 23 12 NE 1014,2 24 0 0,0
14.06.2019 11:00:00 15,0 12,3 13,7 17,3 15,1 19 10 35 19 E 1015,2 21 0 0,2
14.06.2019 10:00:00 14,3 12,0 13,0 17,3 15,1 15 8 27 14 SE 1017,6 15 0 1,6
14.06.2019 09:00:00 14,7 11,8 14,0 17,4 15,1 15 8 24 13 E 1017,1 22 0 0,0
14.06.2019 08:00:00 14,4 11,4 13,5 17,5 15,1 13 7 24 13 E 1015,8 19 0 0,0
14.06.2019 07:00:00 14,5 9,3 13,0 17,6 15,1 8 5 18 10 SE 1014,3 20 0 0,0
14.06.2019 06:00:00 13,9 10,3 12,7 17,7 15,0 9 5 14 8 NE 1013,7 31 0 0,0
14.06.2019 05:00:00 14,2 9,4 12,7 17,8 15,1 10 5 13 7 ENE 1013,4 37 0 0,0
14.06.2019 04:00:00 14,4 9,0 13,0 17,8 15,0 11 6 14 8 E 1013,8 35 0 0,0
14.06.2019 03:00:00 15,2 9,3 13,6 17,9 15,0 10 5 16 8 E 1013,9 35 0 0,0
14.06.2019 02:00:00 16,0 9,6 14,3 18,0 15,0 8 5 19 10 E 1014,0 37 0 0,0
14.06.2019 01:00:00 18,3 7,4 16,3 18,0 15,0 9 5 22 12 S 1014,2 45 0 0,0
14.06.2019 00:00:00 18,4 8,1 12,9 18,0 15,1 13 7 22 12 SSW 1013,9 40 0 0,0
13.06.2019 23:00:00 16,7 8,1 12,6 18,0 15,0 2 1 13 7 N 1014,4 41 0 0,0
13.06.2019 22:00:00 17,5 9,6 14,1 18,0 15,1 8 5 17 9 N 1013,5 44 1 0,0
13.06.2019 21:00:00 22,4 8,5 20,8 17,8 15,0 5 3 12 6 W 1012,4 39 60 0,0
13.06.2019 20:00:00 23,3 7,8 23,5 17,6 15,0 9 5 35 19 WSW 1011,9 58 52 0,0
13.06.2019 19:00:00 25,0 8,0 27,5 17,4 15,0 19 10 34 19 SW 1011,5 11 60 0,0
13.06.2019 18:00:00 25,2 8,2 28,3 17,2 15,0 18 10 33 18 SSW 1011,7 13 60 0,0
13.06.2019 17:00:00 25,1 8,6 29,3 16,9 15,0 14 7 29 16 SW 1012,0 15 60 0,0
13.06.2019 16:00:00 24,4 9,9 28,8 16,7 15,1 16 8 30 16 SSW 1012,7 15 60 0,0
13.06.2019 15:00:00 23,5 7,6 27,7 16,4 15,0 16 9 31 17 WSW 1013,2 20 60 0,0
13.06.2019 14:00:00 22,9 6,6 29,4 16,2 15,0 11 6 36 19 WSW 1013,4 35 60 0,0
13.06.2019 13:00:00 21,7 8,9 27,2 16,1 15,0 7 4 22 12 S 1013,8 30 60 0,0
13.06.2019 12:00:00 20,5 7,5 26,7 16,1 15,0 8 5 17 9 ENE 1014,7 29 60 0,0
13.06.2019 11:00:00 19,8 8,8 24,1 16,2 15,0 4 2 12 7 NE 1015,3 19 60 0,0
13.06.2019 10:00:00 17,7 9,3 19,7 16,2 15,0 7 4 18 10 ENE 1015,4 20 60 0,0
13.06.2019 09:00:00 15,1 9,0 16,2 16,4 15,1 14 8 26 14 E 1015,8 28 60 0,0
13.06.2019 08:00:00 12,6 8,7 12,2 16,5 15,0 14 8 21 11 E 1016,0 52 60 0,0
13.06.2019 07:00:00 8,9 7,0 4,9 16,6 15,0 10 5 16 9 E 1016,6 50 44 0,0
13.06.2019 06:00:00 6,0 4,8 3,9 16,7 15,0 14 8 15 8 E 1016,9 35 0 0,0
13.06.2019 05:00:00 7,3 5,6 3,3 16,9 15,0 4 2 14 8 E 1016,7 32 0 0,0
13.06.2019 04:00:00 7,9 5,9 6,1 17,0 15,1 11 6 16 9 E 1016,6 39 0 0,0
13.06.2019 03:00:00 7,8 6,3 5,4 17,1 15,0 11 6 15 8 E 1016,8 38 0 0,0
13.06.2019 02:00:00 8,8 6,9 6,9 17,1 15,1 9 5 12 7 E 1016,9 40 0 0,0
13.06.2019 01:00:00 9,4 7,0 6,7 17,2 15,1 10 6 13 7 E 1016,4 46 0 0,0
13.06.2019 00:00:00 10,1 8,0 7,6 17,2 15,1 8 5 10 6 E 1016,0 44 0 0,0
12.06.2019 23:00:00 12,6 8,1 8,8 17,2 15,1 4 2 8 4 ESE 1015,2 50 0 0,0
12.06.2019 22:00:00 13,6 8,8 10,1 17,2 15,1 5 3 16 8 NNW 1014,2 53 0 0,0
12.06.2019 21:00:00 18,3 5,5 16,4 17,1 15,1 8 4 23 13 SSW 1012,8 56 58 0,0
12.06.2019 20:00:00 20,0 6,3 21,8 16,9 15,1 16 8 29 15 SW 1012,0 11 60 0,0
12.06.2019 19:00:00 20,8 6,3 23,8 16,7 15,1 18 10 31 17 SW 1011,4 8 60 0,0
12.06.2019 18:00:00 21,0 4,9 24,5 16,5 15,1 23 12 36 19 SW 1011,4 6 60 0,0
12.06.2019 17:00:00 20,9 6,0 24,8 16,3 15,1 22 12 37 20 SW 1011,5 6 60 0,0
12.06.2019 16:00:00 20,8 5,2 24,7 16,0 15,1 23 12 39 21 SW 1011,4 10 60 0,0
12.06.2019 15:00:00 20,2 6,9 24,5 15,8 15,1 18 10 32 17 SSW 1011,7 18 60 0,0
12.06.2019 14:00:00 19,0 8,0 24,5 15,6 15,1 14 7 29 16 SW 1012,0 33 60 0,0
12.06.2019 13:00:00 17,4 8,5 22,3 15,5 15,1 10 5 25 14 WSW 1012,6 34 60 0,0
12.06.2019 12:00:00 16,6 8,3 21,1 15,4 15,1 10 5 24 13 WSW 1013,1 60 60 0,0
12.06.2019 11:00:00 15,7 8,0 16,7 15,4 15,1 6 3 18 10 WSW 1013,1 57 38 0,0
12.06.2019 10:00:00 15,0 8,0 20,4 15,5 15,2 6 3 12 6 S 1013,2 56 60 0,0
12.06.2019 09:00:00 13,4 8,9 15,5 15,5 15,2 7 4 12 6 E 1013,4 7 60 0,0
12.06.2019 08:00:00 10,7 9,5 10,0 15,6 15,2 8 4 16 9 ENE 1013,6 3,5 46 0,0
12.06.2019 07:00:00 9,4 8,5 7,4 15,7 15,2 12 6 17 9 E 1013,5 6 38 0,0
12.06.2019 06:00:00 9,0 7,8 7,4 15,7 15,2 8 4 14 8 ENE 1013,8 35 0 0,0
12.06.2019 05:00:00 9,7 8,5 9,1 15,8 15,2 7 4 10 5 ESE 1013,9 15 0 1,4
12.06.2019 04:00:00 10,4 9,3 9,9 15,9 15,2 5 3 8 5 ENE 1013,1 4,6 0 3,0
12.06.2019 03:00:00 10,8 9,9 10,1 16,0 15,2 4 2 9 5 W 1012,9 1,6 0 6,4
12.06.2019 02:00:00 11,0 10,1 10,6 16,1 15,2 2 1 8 5 SW 1012,2 1,4 0 4,0
12.06.2019 01:00:00 11,0 10,1 10,6 16,1 15,2 4 2 10 6 ENE 1011,7 14 0 0,4
12.06.2019 00:00:00 11,0 9,9 10,7 16,1 15,2 3 2 10 5 ENE 1012,5 3,7 0 1,5
11.06.2019 23:00:00 11,1 10,0 10,6 16,2 15,2 8 4 16 9 ESE 1012,6 14 0 0,2
11.06.2019 22:00:00 11,0 9,7 10,6 16,2 15,2 11 6 14 8 E 1012,7 8 0 2,4
11.06.2019 21:00:00 11,6 10,5 11,2 16,2 15,2 8 4 12 7 E 1012,5 7 0 2,2
11.06.2019 20:00:00 12,2 11,1 11,7 16,2 15,2 9 5 16 9 E 1011,9 7 0 0,8
11.06.2019 19:00:00 12,7 11,6 12,5 16,2 15,2 10 5 18 10 E 1011,8 10 0 0,8
11.06.2019 18:00:00 13,0 11,7 12,9 16,1 15,2 8 5 13 7 ENE 1011,7 10 0 1,2
11.06.2019 17:00:00 13,1 11,2 13,0 16,1 15,2 7 4 9 5 ENE 1012,0 9 0 1,2
11.06.2019 16:00:00 13,3 10,7 13,4 16,1 15,3 3 2 8 5 SSE 1012,4 6 0 1,2

tt = Température de l'air
td = dewpoint
tt 5cm = Température de l'air 5cm
tt -20cm = Température de l'air -20cm
tt -100cm = Température de l'air -100cm
ff = Vitesse du vent
fx = gusts
dd = Direction du vent
ppp = reduced air pressure
vv = visibility
sd = Ensoleillement
rr = Quantités de précipitations

stations d'obs. à proximité